Tracking 28794 objects as of 19-Apr-2024
HD Live streaming from Space Station
objects crossing your sky now

FENGYUN 1C DEB

Track FENGYUN 1C DEB now!
10-day predictions


NORAD ID: 32210
Int'l Code: 1999-025CVG
Perigee: 821.6 km
Apogee: 931.1 km
Inclination: 98.9 °
Period: 102.3 minutes
Semi major axis: 7247 km
RCS: 0.0144 m2 (small)
Launch date: May 10, 1999
Source: People's Republic of China (PRC)
Launch site: Taiyaun Space Center, China (TSC)

Note: This is SATELLITE DEBRIS
Your satellite tracking list
Your tracking list is empty




NASA's NSSDC Master Catalog

Two Line Element Set (TLE):
1 32210U 99025CVG 24097.91140571  .00002122  00000-0  12606-2 0  9997
2 32210  98.9274 147.5446 0075545 101.8852 259.0801 14.07131882527252
Source of the keplerian elements: AFSPC